Location: Burbank
(38.7788°N, 114.0429°W)
Time: 20:01:03
(UTC+00:00)

Vanguard 2 Rocket - Pass Details

Date: 19 May 2026
Orbit: 553 x 3286 km, 32.9° (Epoch: 6 June)

Event Time Altitude Azimuth Distance (km) Brightness Sun altitude
Rises 15:19:47 0° 205° (SSW) 3,954 10.0 32.9°
Reaches altitude 10° 15:22:35 10° 193° (SSW) 3,317 9.8 33.4°
Maximum altitude 15:29:42 28° 138° (SE) 2,948 10.4 34.8°
Drops below altitude 10° 15:40:28 10° 88° (E) 5,162 12.1 36.9°
Sets 15:46:11 0° 79° (ENE) 6,604 12.2 38.0°
